TimeEDT,TemperatureF,Dew PointF,Humidity,Sea Level PressureIn,VisibilityMPH,Wind Direction,Wind SpeedMPH,Gust SpeedMPH,PrecipitationIn,Events,Conditions,WindDirDegrees,DateUTC
12:00 AM,48.0,21.9,36,30.00,-9999.0,Variable,6.9,23.0,N/A,,Clear,0,2013-04-06 04:00:00
1:00 AM,45.0,19.0,36,30.02,-9999.0,NNW,5.8,-,N/A,,Clear,340,2013-04-06 05:00:00
2:00 AM,44.1,19.0,37,30.05,-9999.0,NNW,9.2,-,N/A,,Clear,330,2013-04-06 06:00:00
3:00 AM,45.0,19.9,37,30.07,-9999.0,NW,5.8,-,N/A,,Clear,310,2013-04-06 07:00:00
4:00 AM,39.9,19.9,45,30.09,-9999.0,NNW,3.5,-,N/A,,Clear,330,2013-04-06 08:00:00
5:00 AM,41.0,19.0,41,30.13,-9999.0,NNW,6.9,-,N/A,,Clear,330,2013-04-06 09:00:00
6:00 AM,39.9,12.9,33,30.16,-9999.0,Variable,6.9,-,N/A,,Clear,0,2013-04-06 10:00:00
7:00 AM,37.9,15.1,39,30.21,-9999.0,NNW,3.5,-,N/A,,Clear,330,2013-04-06 11:00:00
8:00 AM,42.1,16.0,35,30.24,-9999.0,NNW,8.1,-,N/A,,Clear,340,2013-04-06 12:00:00
9:00 AM,44.1,18.0,35,30.27,-9999.0,North,10.4,16.1,N/A,,Clear,350,2013-04-06 13:00:00
10:00 AM,48.0,17.1,29,30.27,-9999.0,NW,8.1,-,N/A,,Clear,320,2013-04-06 14:00:00
11:00 AM,52.0,16.0,24,30.29,-9999.0,NW,10.4,-,N/A,,Clear,310,2013-04-06 15:00:00
12:00 PM,54.0,15.1,22,30.30,-9999.0,North,10.4,-,N/A,,Clear,350,2013-04-06 16:00:00
1:00 PM,55.9,14.0,19,30.29,-9999.0,Calm,Calm,-,N/A,,Clear,0,2013-04-06 17:00:00
2:00 PM,62.1,14.0,15,30.28,-9999.0,Variable,4.6,-,N/A,,Clear,0,2013-04-06 18:00:00
3:00 PM,60.1,10.9,14,30.28,-9999.0,Variable,4.6,-,N/A,,Clear,0,2013-04-06 19:00:00
6:00 PM,57.0,25.0,29,30.29,-9999.0,SSE,9.2,-,N/A,,Clear,150,2013-04-06 22:00:00
7:00 PM,54.0,27.0,35,30.30,-9999.0,SSE,9.2,-,N/A,,Clear,150,2013-04-06 23:00:00
8:00 PM,48.9,27.0,43,30.30,-9999.0,SE,5.8,-,N/A,,Clear,140,2013-04-07 00:00:00
9:00 PM,46.0,27.0,47,30.32,-9999.0,SE,4.6,-,N/A,,Clear,140,2013-04-07 01:00:00
10:00 PM,42.1,27.0,55,30.32,-9999.0,South,3.5,-,N/A,,Clear,170,2013-04-07 02:00:00
11:00 PM,45.0,27.0,49,30.32,-9999.0,SSE,3.5,-,N/A,,Clear,150,2013-04-07 03:00:00